Regional Weather Roundup
Issued by NWS

Home | Current Version | Previous Version | Graphics & Text | Print | Product List | Glossary On
Versions: 1 2 3 4 5 6 7 8 9 10 11 12 13 14 15 16 17 18 19 20 21 22 23 24 25 26 27 28 29 30 31 32 33 34 35 36 37 38 39 40 41 42 43 44 45 46 47 48 49 50
000
ASUS45 KPSR 181510
RWRAZ

ARIZONA HOURLY REGIONAL WEATHER ROUNDUP
NATIONAL WEATHER SERVICE PHOENIX AZ
800 AM MST SAT NOV 18 2017

NOTE: FAIR INDICATES FEW OR NO CLOUDS BELOW 12,000 FEET WITH NO
SIGNIFICANT WEATHER AND/OR OBSTRUCTIONS TO VISIBILITY.

AZZ001>003-036-181600-
NORTHWEST ARIZONA

CITY           SKY/WX    TMP DP  RH WIND       PRES   REMARKS
BULLHEAD CITY  CLEAR     55  18  22 N26G38    30.25S
KINGMAN        CLEAR     38  19  46 NE8       30.29R WCI  32
$$

AZZ004>008-015-016-018-181600-
NORTH CENTRAL ARIZONA

CITY           SKY/WX    TMP DP  RH WIND       PRES   REMARKS
GRAND CANYON   PTCLDY    31  10  41 E13       30.34R WCI  21
WILLIAMS       PTCLDY    30  19  64 SE8       30.30R WCI  23
PRESCOTT       PTCLDY    34  27  75 SW3       30.29R
FLAGSTAFF      PTCLDY    29  10  45 E14G21    30.34R WCI  18
PAYSON           N/A     41  23  48 N12       30.28
PAGE           PTCLDY    36  14  40 CALM      30.40R
$$

AZZ009>014-017-181600-
NORTHEAST ARIZONA

CITY           SKY/WX    TMP DP  RH WIND       PRES   REMARKS
WINSLOW        PTCLDY    36  18  48 NW6       30.39R WCI  31
SAINT JOHNS    MOSUNNY   35  25  66 CALM      30.34R
WINDOW ROCK    MOSUNNY   27  13  55 CALM      30.35R
SHOW LOW       SUNNY     30  21  69 NE7       30.36R WCI  23
$$

AZZ540-542>544-546-548-181600-
GREATER PHOENIX AREA

CITY           SKY/WX    TMP DP  RH WIND       PRES   REMARKS
PHOENIX        PTCLDY    58  43  57 SW3       30.12R
BUCKEYE        CLEAR     55  39  54 W3        30.13R
GLENDALE       CLEAR     64  32  29 N14       30.14R
LUKE AFB       CLEAR     64  29  27 N9        30.12R
DEER VALLEY    CLEAR     60  34  37 CALM      30.14R
SCOTTSDALE     CLEAR     65  34  31 N10       30.14R
MESA-FALCON    SUNNY     61  36  39 NE14      30.13R
MESA-GATEWAY   SUNNY     52  36  54 VRB3      30.13R
CHANDLER       SUNNY     55  37  50 NE3       30.12R
$$

AZZ539-553-181600-
SOUTHWEST MARICOPA COUNTY AND PINAL COUNTY

CITY           SKY/WX    TMP DP  RH WIND       PRES   REMARKS
CASA GRANDE    NOT AVBL
$$

AZZ503-504-507>509-181600-
SOUTHEAST ARIZONA

CITY           SKY/WX    TMP DP  RH WIND       PRES   REMARKS
TUCSON         SUNNY     56  36  47 S8        30.16R
DAVIS-MONTHAN  SUNNY     54  36  52 SE6       30.14R
NOGALES        MOSUNNY   47  33  58 NE5       30.18R
SIERRA VISTA   MOSUNNY   51  36  56 S6        30.23R
DOUGLAS        MOSUNNY   50  31  48 SW3       30.21R
SAFFORD        SUNNY     53  33  46 NW3       30.17R
$$

AZZ532-181600-
SOUTHWEST ARIZONA

CITY           SKY/WX    TMP DP  RH WIND       PRES   REMARKS
YUMA           CLEAR     66  21  18 N14       30.12R
$$

CAZ041-043-047-048-061-525>527-560>570-181600-
SOUTHERN CALIFORNIA

CITY           SKY/WX    TMP DP  RH WIND       PRES   REMARKS
DOWNTOWN L.A.  CLEAR     57  51  80 CALM      30.13R
L.A. AIRPORT   PTCLDY    58  55  90 VRB3      30.14R
SAN DIEGO      PTCLDY    58  51  78 N6        30.14R
BURBANK        CLEAR     52  47  83 CALM      30.14R
ONTARIO        PTCLDY    52  51  97 NW3       30.14R FOG
RIVERSIDE      CLEAR     53  52  96 CALM      30.14R
PALM SPRINGS   CLEAR     68  22  17 W10       30.18R
EL CENTRO NAS  CLEAR     55  41  59 CALM      30.16R
IMPERIAL       CLEAR     55  44  66 SW3       30.13R
BLYTHE         CLEAR     60  17  18 N16       30.19R
NEEDLES        CLEAR     57  22  25 N22       30.26R
$$

NVZ020-UTZ003-181600-
SOUTHERN NEVADA-UTAH

CITY           SKY/WX    TMP DP  RH WIND       PRES   REMARKS
LAS VEGAS      CLEAR     48  17  29 N5        30.35R
SALT LAKE CITY PTCLDY    31  21  66 SE9       30.46R WCI  23
$$

NMZ009-TXZ055-181600-
NEW MEXICO-WEST TEXAS

CITY           SKY/WX    TMP DP  RH WIND       PRES   REMARKS
ALBUQUERQUE    CLOUDY    37  12  35 N10G22    30.34R WCI  30
EL PASO        MOSUNNY   61  29  29 N15       30.15R
$$


........................KEY........................
SKY/WX - SKY CONDITION/WEATHER
TMP    - TEMPERATURE IN FAHRENHEIT
DP     - DEW POINT IN FAHRENHEIT
RH     - RELATIVE HUMIDITY IN PERCENT
WIND   - DIRECTION AND SPEED IN MILES PER HOUR (MPH)
VRB    - VARIABLE WIND DIRECTION
PRES   - MEAN SEA LEVEL PRESSURE IN INCHES OF MERCURY
         F - FALLING PRESSURE   R - RISING PRESSURE
         S - STEADY PRESSURE
VSB    - VISIBILITY IN MILES
HX     - HEAT INDEX IN FAHRENHEIT
WCI    - WIND CHILL INDEX IN FAHRENHEIT
TC     - TEMPERATURE IN CELSIUS WHICH IS ALSO KNOWN AS
         TEMPERATURE IN CENTIGRADE
AFB    - AIR FORCE BASE
         LUKE AFB IS LUKE AIR FORCE BASE
         DAVIS-MONTHAN IS DAVIS-MONTHAN AIR FORCE BASE
NAS    - NAVAL AIR STATION
         EL CENTRO NAS IS EL CENTRO NAVAL AIR STATION
N/A    - NOT AVAILABLE




USA.gov is the U.S. government's official web portal to all federal, state and local government web resources and services.